Flag for United Arab Emirates Weather past 2 weeks in Umm al-Quwain, Umm al-Quwain, United Arab Emirates

Now
102 °F

Sunny.


Feels Like: N/A
Forecast: 82 / 94 °F
Wind: 7 mph from Northwest

Location: Sharjah International Airport

Current Time: May 3, 2015 at 2:55:24 PM

Latest Report: May 3, 2015 at 2:00 PM


Visibility: 10 mi

Pressure: N/A

Humidity: N/A

Dew point: N/A

Location of Umm al-QuwainLocation

Historic Weather in Umm al-Quwain — Graph

°F

Umm al-Quwain temperature yesterday

Maximum temperature yesterday: 100 °F (at 12:00 PM)
Minimum temperature yesterday: 64 °F (at 6:00 AM)
Average temperature yesterday: 84 °F

Past Weeks' High & Low Weather Summary

 TemperatureHumidityPressure
High104 °F (Apr 24, 12:00 PM)89% (Apr 28, 4:00 AM)30.07 "Hg (Apr 28, 4:00 AM)
Low64 °F (Apr 21, 6:00 AM)6% (May 2, 11:00 AM)29.68 "Hg (May 2, 11:00 PM)
Average83 °F45%29.82 "Hg
* Reported Apr 18 1:00 PM — May 3 1:00 PM, Umm al-Quwain, Weather by CustomWeather, © 2015

Note: Actual official high and low records may vary slightly from our data, if they occured in-between our weather recording intervals... More about our weather records

Advertising

Umm al-Quwain weather history for previous 24 hours

 ConditionsComfort  
Time TempWeatherWind HumidityBarometerVisibility
1:00 PM
Sun, May 3
100 °FSunny.7 mph13%29.74 "Hg10 mi
12:00 PM100 °FSunny.10 mph17%29.74 "Hg10 mi
10:00 AM99 °FSunny.3 mph6%29.77 "Hg10 mi
9:00 AM91 °FSunny.2 mph10%29.77 "Hg10 mi
8:00 AM84 °FSunny.2 mph18%29.77 "Hg10 mi
7:00 AM79 °FSunny.5 mph23%29.74 "Hg10 mi
6:00 AM70 °FSunny.6 mph38%29.74 "Hg10 mi
5:00 AM70 °FClear.6 mph38%29.74 "Hg10 mi
4:00 AM72 °FClear.5 mph38%29.71 "Hg10 mi
3:00 AM75 °FClear.5 mph36%29.71 "Hg10 mi
2:00 AM73 °FClear.7 mph38%29.74 "Hg10 mi
1:00 AM77 °FClear.5 mph36%29.77 "Hg10 mi
12:00 AM77 °FClear.6 mph34%29.77 "Hg10 mi
11:00 PM
Sat, May 2
77 °FClear.5 mph36%29.68 "Hg10 mi
10:00 PM79 °FClear.3 mph37%29.80 "Hg10 mi
9:00 PM81 °FClear.2 mph37%29.80 "Hg10 mi
8:00 PM86 °FClear.2 mph31%29.77 "Hg10 mi
7:00 PM88 °FClear.5 mph29%29.77 "Hg10 mi
6:00 PM90 °FSunny.10 mph24%29.77 "Hg10 mi
5:00 PM93 °FSunny.14 mph16%29.74 "Hg10 mi
4:00 PM95 °FSunny.14 mph19%29.74 "Hg10 mi
3:00 PM97 °FSunny.15 mph14%29.77 "Hg10 mi
2:00 PM100 °FSunny.10 mph8%29.80 "Hg10 mi
Weather by CustomWeather, © 2015

See weather overviewHow to use our weather pages